User: anonymous   Login
Location: Remedello Sotto
(45.2500°N, 10.3667°E)
Time: 20:16:04
(UTC+00:00)
Language:

DMSP 5D-2 F13 DEB - Orbit

View from above orbital plane
View from above orbital plane
View from above satellite
View from above satellite

Ground track
Ground track

The orbit data is extracted from the following two-line orbital elements,

1 42257U 95015FX  24056.16737385  .00021456  00000-0  45684-2 0  9994
2 42257  98.7380 183.9385 0050994 337.5648  22.3320 14.58168995437043
Epoch (UTC): 25 February 2024 04:01:01
Eccentricity: 0.0050994
inclination: 98.7380°
perigee height: 663 km
apogee height: 735 km
right ascension of ascending node: 183.9385°
argument of perigee: 337.5648°
revolutions per day: 14.58168995
mean anomaly at epoch: 22.3320°
orbit number at epoch: 43704

The dashed part of the orbit path shows where the satellite is in the earth's shadow,  

DLR